This demonstration page uses our WeatherBlox Daily Observations layout. Learn more.

Left ArrowRight Arrow

41.55636, -103.73856

Hourly Observations for December 2, 2018

Temp ( °F °C ) Dew Point ( °F °C ) Humidity (%) Winds ( mph kmh ) Pressure ( in mb ) Visibility ( mi km ) Precip ( " mm )
12:58 am 00:58 Cloudy with Light Snow 26 -3.5 25 -4 96 96 NNW 8 13 29.87 1012 3 4 0.01 0.25
2:58 am 02:58 Mostly Cloudy with Light Snow 25 -3.9 24 -4.5 96 96 N 9 15 29.88 1012 10 16 N/A
3:58 am 03:58 Cloudy with Light Snow 25 -3.7 24 -4.2 96 96 NNW 8 13 29.89 1012 10 16 N/A
4:58 am 04:58 Cloudy with Light Snow 25 -3.7 24 -4.3 96 96 N 7 11 29.89 1012 6 10 0.01 0.25
5:58 am 05:58 Cloudy with Light Snow 26 -3.6 24 -4.2 96 96 N 7 11 29.90 1013 10 16 N/A
6:58 am 06:58 Cloudy with Light Snow 26 -3.6 24 -4.2 96 96 N 8 13 29.94 1014 9 14 0.01 0.25
7:58 am 07:58 Cloudy with Light Snow 25 -3.9 23 -4.8 94 94 NE 10 17 29.95 1014 10 16 0.00 0.00
8:58 am 08:58 Cloudy with Light Snow 26 -3.2 23 -4.8 89 89 N 6 9 29.98 1015 10 16 0.01 0.25
9:58 am 09:58 Mostly Cloudy 28 -2.5 24 -4.7 85 85 N 8 13 29.98 1015 10 16 0.01 0.25
10:58 am 10:58 Mostly Cloudy 29 -1.8 23 -4.8 80 80 NW 6 9 30.00 1016 10 16 0.01 0.25
11:58 am 11:58 Cloudy 29 -1.7 22 -5.8 74 74 N 9 15 30.00 1016 10 16 N/A
12:58 pm 12:58 Cloudy 29 -1.6 22 -5.4 76 76 N 9 15 30.00 1016 10 16 N/A
1:58 pm 13:58 Cloudy 29 -1.7 23 -4.8 80 80 N 9 15 30.06 1018 10 16 N/A
2:58 pm 14:58 Mostly Sunny 28 -2.2 24 -4.7 83 83 N 6 9 30.03 1017 10 16 N/A
3:58 pm 15:58 Mostly Sunny 26 -3.1 22 -5.4 84 84 NNE 6 9 30.05 1018 10 16 N/A
4:58 pm 16:58 Clear 20 -6.5 19 -7.4 93 93 N 8 13 30.10 1019 10 16 N/A
5:58 pm 17:58 Clear 19 -7.4 18 -7.9 96 96 N 8 13 30.12 1020 10 16 N/A
6:58 pm 18:58 Mostly Clear 17 -8.5 16 -9.1 95 95 N 6 9 30.16 1021 10 16 N/A
7:58 pm 19:58 Mostly Clear 17 -8.5 16 -9 96 96 N 7 11 30.18 1022 10 16 N/A
8:58 pm 20:58 Mostly Clear 16 -8.9 15 -9.5 95 95 N 7 11 30.19 1022 10 16 N/A
9:58 pm 21:58 Mostly Clear 15 -9.3 14 -10.1 94 94 NNW 7 11 30.20 1023 7 11 N/A
10:58 pm 22:58 Clear 12 -11.2 10 -12.2 92 92 NW 7 11 30.23 1024 10 16 N/A
11:58 pm 23:58 Mostly Clear 13 -10.8 11 -11.9 92 92 NW 7 11 30.24 1024 10 16 N/A

Powered by AerisWeather